Location: Carrer del Canonge
(41.4901°N, 2.2931°E)
Time: 14:43:30
(UTC+00:00)

ISS - Visible Passes

Search period start: 12 May 2021 00:00
Search period end: 22 May 2021 00:00
Orbit: 417 x 422 km, 51.6° (Epoch: 12 May)

Date Brightness Start Highest point End Pass type
(mag) Time Alt. Az. Time Alt. Az. Time Alt. Az.
12 May -0.8 00:51:12 15° NNW 00:51:46 15° N 00:53:50 10° NNE visible
12 May -0.9 02:27:01 10° NNW 02:29:33 19° NNE 02:32:05 10° ENE visible
13 May -0.6 00:05:02 15° N 00:05:02 15° N 00:06:21 10° NNE visible
13 May -0.7 01:39:38 10° NNW 01:41:54 16° N 01:44:09 10° NE visible
13 May -2.6 03:16:03 10° NW 03:19:20 46° NNE 03:22:36 10° ESE visible
13 May -0.5 23:18:38 12° NNE 23:18:38 12° NNE 23:18:58 10° NNE visible
14 May -0.6 00:52:09 10° NNW 00:54:13 15° N 00:56:17 10° NE visible
14 May -1.8 02:28:44 10° NW 02:31:49 31° NNE 02:34:53 10° E visible
14 May -3.9 20:48:25 10° SW 20:51:45 66° SE 20:55:06 10° ENE visible
14 May -1.3 22:26:01 10° WNW 22:28:48 24° NNW 22:31:37 10° NE visible
15 May -0.5 00:04:33 10° NW 00:06:31 15° N 00:08:30 10° NE visible
15 May -1.3 01:41:25 10° NW 01:44:14 24° NNE 01:47:03 10° ENE visible
15 May -3.8 03:17:56 10° WNW 03:21:17 66° SW 03:24:38 10° SE visible
15 May -3.3 20:01:15 10° SSW 20:04:22 38° SE 20:07:32 10° ENE visible
15 May -1.9 21:38:10 10° W 21:41:14 31° NNW 21:44:18 10° NE visible
15 May -0.6 23:16:46 10° NW 23:18:49 15° N 23:20:53 10° NNE visible
16 May -0.9 00:54:04 10° NNW 00:56:36 19° NNE 00:59:08 10° ENE visible
16 May -3.6 02:30:28 10° NW 02:33:52 74° NE 02:37:14 10° ESE visible
16 May -2.6 20:50:27 10° WSW 20:53:41 45° NNW 20:56:57 10° NE visible
16 May -0.7 22:28:53 10° NW 22:31:08 16° N 22:33:23 10° NNE visible
17 May -0.7 00:06:40 10° NNW 00:08:56 17° N 00:11:12 10° NE visible
17 May -2.7 01:43:06 10° NW 01:46:22 46° NNE 01:49:39 10° ESE visible
17 May -2.6 03:20:18 10° W 03:22:59 22° SW 03:25:41 10° S visible
17 May -3.5 20:02:52 10° WSW 20:06:12 73° NNW 20:09:35 10° NE visible
17 May -0.9 21:40:58 10° WNW 21:43:28 19° NNW 21:46:00 10° NNE visible
17 May -0.6 23:19:11 10° NNW 23:21:15 15° N 23:22:55 11° NE visible
18 May -0.6 00:55:46 10° NW 00:55:48 10° NW 00:55:48 10° NW visible
18 May -1.2 20:53:02 10° WNW 20:55:50 24° NNW 20:58:38 10° NE visible
18 May -0.6 22:31:34 10° NW 22:33:33 15° N 22:35:31 10° NE visible
19 May -0.8 00:08:26 10° NW 00:09:25 16° NNW 00:09:25 16° NNW visible
19 May -1.7 20:05:12 10° W 20:08:14 31° NNW 20:11:18 10° NE visible
19 May -0.6 21:43:48 10° NW 21:45:50 15° N 21:47:53 10° NNE visible
19 May -1.0 23:21:04 10° NNW 23:23:16 19° N 23:23:16 19° N visible
20 May -0.7 20:55:54 10° NW 20:58:08 16° N 21:00:23 10° NNE visible
20 May -0.9 22:33:41 10° NNW 22:35:56 17° N 22:37:10 14° NE visible
21 May -0.5 00:10:06 10° NW 00:10:06 10° NW 00:10:06 10° NW visible
21 May -0.9 20:07:58 10° WNW 20:10:27 19° NNW 20:12:58 10° NNE visible
21 May -0.8 21:46:11 10° NNW 21:48:14 15° N 21:50:18 10° NE visible
21 May -1.1 23:22:45 10° NW 23:24:04 19° NNW 23:24:04 19° NNW visible
